Retour au catalogue

SL-8 R/B

ActifLEO
NORAD 5218·ROCKET BODY·🇷🇺 Russia

Lancé May 7, 1971 depuis Plesetsk Cosmodrome

Loading…

Prochains Passages (prochaines 24 heures)

TLE

FraisSource: Space-Track

Époque: Sep 14, 2026, 15:06 UTC

1 05218U 71041J   26257.62978715 -.00000046  00000-0 -25648-3 0  9996
2 05218  74.0303  21.7184 0066767  12.5387 359.1806 12.32230110705836

Suivez SL-8 R/B en temps réel avec AllMySat

Download on the App Store